Weather History for Ludington, MI

Change the Weather History Date:

Tuesday, October 9, 2012

  Actual Average Record
Temperature  
Mean Temperature 48 °F -  
Max Temperature 58 °F 59 °F 79 °F (1949)
Min Temperature 39 °F 41 °F 23 °F (1989)
Degree Days  
Heating Degree Days 16    
Moisture  
Dew Point 40 °F    
Average Humidity 64    
Maximum Humidity 87    
Minimum Humidity 45    
Precipitation  
Precipitation 0.29 in - - ()
Sea Level Pressure  
Sea Level Pressure 29.83 in    
Wind  
Wind Speed 19 mph (SW)    
Max Wind Speed 26 mph    
Max Gust Speed 34 mph    
Visibility 10 miles    
Events Rain    
Averages and records for this station are not official NWS values.
T = Trace of Precipitation, MM = Missing Value Source: NWS Daily Summary

Daily Weather History Graph

Daily Weather History Graph

Search for Another Location

Airport:

Trip Planner

Search our weather history database for the weather conditions in past years. The results will help you decide how hot, cold, wet, or windy it might be!

Date:

Astronomy

Oct. 09, 2012 Rise Set
Actual Time 7:53 AM EDT 7:11 PM EDT
Civil Twilight 7:24 AM EDT 7:40 PM EDT
Nautical Twilight 6:51 AM EDT 8:13 PM EDT
Astronomical Twilight 6:17 AM EDT 8:46 PM EDT
Moon 1:17 AM EDT (10/9) 3:49 PM EDT (10/9)
Length of Visible Light 12h 15m
Length of Day
11h 17m
Last Quarter, 37% of the Moon is Illuminated
Oct 9
Last Quarter
Oct 15
New
Oct 21
First Quarter
Oct 29
Full
Nov 6
Last Quarter

Hourly Weather History & Observations

Time (EDT) Temp. Windchill Dew Point Humidity Pressure Visibility Wind Dir Wind Speed Gust Speed Precip Events Conditions
12:15 AM 55.0 °F - 34.2 °F 45% 29.95 in 10.0 mi SSW 19.6 mph 31.1 mph N/A   Overcast
12:35 AM 54.5 °F - 34.0 °F 46% 29.94 in 10.0 mi SSW 15.0 mph 32.2 mph N/A   Overcast
12:55 AM 54.0 °F - 34.7 °F 48% 29.93 in 10.0 mi SSW 23.0 mph 29.9 mph N/A   Mostly Cloudy
1:15 AM 53.4 °F - 34.2 °F 48% 29.92 in 10.0 mi SSW 21.9 mph 34.5 mph N/A   Mostly Cloudy
1:35 AM 54.0 °F - 34.5 °F 48% 29.91 in 10.0 mi SSW 26.5 mph 34.5 mph N/A   Mostly Cloudy
1:55 AM 53.1 °F - 34.2 °F 49% 29.92 in 10.0 mi SSW 20.7 mph 31.1 mph N/A   Overcast
2:15 AM 53.1 °F - 34.7 °F 50% 29.91 in 10.0 mi SSW 20.7 mph 34.5 mph N/A   Overcast
2:55 AM 53.6 °F - 35.2 °F 50% 29.91 in 10.0 mi SW 19.6 mph 33.4 mph N/A   Overcast
3:16 AM 53.1 °F - 35.2 °F 51% 29.91 in 10.0 mi SSW 20.7 mph 33.4 mph N/A   Overcast
3:55 AM 53.1 °F - 35.8 °F 52% 29.89 in 10.0 mi SSW 20.7 mph 28.8 mph N/A   Overcast
4:15 AM 53.1 °F - 36.1 °F 53% 29.89 in 10.0 mi SSW 20.7 mph 31.1 mph N/A   Overcast
4:35 AM 53.1 °F - 36.1 °F 53% 29.88 in 10.0 mi SSW 20.7 mph 31.1 mph N/A   Overcast
4:55 AM 53.1 °F - 37.0 °F 55% 29.88 in 10.0 mi SSW 19.6 mph 33.4 mph N/A   Overcast
5:15 AM 53.1 °F - 37.6 °F 56% 29.88 in 10.0 mi SSW 17.3 mph 27.6 mph N/A   Overcast
5:35 AM 53.1 °F - 38.3 °F 57% 29.88 in 10.0 mi SSW 19.6 mph 29.9 mph N/A   Overcast
5:55 AM 53.1 °F - 38.5 °F 58% 29.88 in 10.0 mi SSW 18.4 mph 27.6 mph N/A   Mostly Cloudy
6:15 AM 53.1 °F - 39.0 °F 59% 29.88 in 10.0 mi SSW 21.9 mph 26.5 mph N/A   Scattered Clouds
6:35 AM 53.1 °F - 38.8 °F 59% 29.87 in 10.0 mi SSW 18.4 mph 26.5 mph N/A   Scattered Clouds
6:55 AM 53.1 °F - 39.6 °F 60% 29.87 in 10.0 mi SSW 21.9 mph 29.9 mph N/A   Clear
7:15 AM 53.1 °F - 39.2 °F 59% 29.87 in 10.0 mi SSW 18.4 mph 33.4 mph N/A   Scattered Clouds
7:35 AM 53.1 °F - 39.7 °F 61% 29.88 in 10.0 mi SSW 17.3 mph 23.0 mph N/A   Mostly Cloudy
7:55 AM 53.1 °F - 39.7 °F 61% 29.87 in 10.0 mi SSW 18.4 mph 26.5 mph N/A   Overcast
8:15 AM 53.1 °F - 39.4 °F 60% 29.87 in 10.0 mi SSW 21.9 mph 27.6 mph N/A Rain Light Rain
8:35 AM 53.1 °F - 40.1 °F 61% 29.87 in 10.0 mi SW 19.6 mph 27.6 mph N/A Rain Light Rain
8:55 AM 53.1 °F - 39.7 °F 61% 29.86 in 10.0 mi SSW 17.3 mph 26.5 mph N/A   Light Drizzle
9:15 AM 53.1 °F - 40.3 °F 62% 29.86 in 10.0 mi SW 21.9 mph 29.9 mph N/A Rain Light Rain
9:35 AM 53.1 °F - 39.0 °F 59% 29.86 in 10.0 mi SW 17.3 mph 31.1 mph N/A   Scattered Clouds
9:55 AM 54.1 °F - 40.1 °F 59% 29.86 in 10.0 mi SSW 21.9 mph 28.8 mph N/A   Mostly Cloudy
10:15 AM 55.2 °F - 41.0 °F 59% 29.86 in 10.0 mi SW 23.0 mph 29.9 mph N/A   Scattered Clouds
10:35 AM 55.6 °F - 41.0 °F 58% 29.85 in 10.0 mi SSW 20.7 mph 29.9 mph N/A   Scattered Clouds
10:55 AM 55.6 °F - 41.4 °F 59% 29.85 in 10.0 mi SW 20.7 mph 28.8 mph N/A   Mostly Cloudy
11:15 AM 54.5 °F - 40.5 °F 59% 29.84 in 10.0 mi SW 21.9 mph 27.6 mph N/A   Overcast
11:35 AM 54.5 °F - 40.5 °F 59% 29.83 in 10.0 mi SSW 15.0 mph 27.6 mph N/A   Mostly Cloudy
11:55 AM 55.6 °F - 41.2 °F 58% 29.83 in 10.0 mi SW 17.3 mph 21.9 mph N/A   Scattered Clouds
12:15 PM 55.6 °F - 41.2 °F 58% 29.83 in 10.0 mi SW 19.6 mph 31.1 mph N/A   Scattered Clouds
12:35 PM 58.1 °F - 43.2 °F 58% 29.83 in 10.0 mi SW 19.6 mph 28.8 mph N/A   Mostly Cloudy
12:55 PM 57.2 °F - 42.8 °F 59% 29.82 in 10.0 mi SSW 19.6 mph 28.8 mph N/A   Mostly Cloudy
1:15 PM 55.6 °F - 43.0 °F 63% 29.82 in 10.0 mi SW 20.7 mph 32.2 mph N/A   Mostly Cloudy
1:35 PM 55.6 °F - 43.9 °F 65% 29.82 in 10.0 mi SW 18.4 mph 31.1 mph N/A   Overcast
1:55 PM 54.5 °F - 43.2 °F 66% 29.79 in 10.0 mi SSW 23.0 mph 28.8 mph N/A   Overcast
2:15 PM 54.9 °F - 43.5 °F 66% 29.79 in 10.0 mi SSW 24.2 mph 31.1 mph N/A   Overcast
2:36 PM 53.4 °F - 43.2 °F 68% 29.79 in 10.0 mi SSW 23.0 mph 32.2 mph N/A   Overcast
2:55 PM 55.2 °F - 44.1 °F 66% 29.79 in 10.0 mi SW 19.6 mph 31.1 mph N/A   Overcast
3:15 PM 55.6 °F - 44.6 °F 67% 29.78 in 10.0 mi SW 20.7 mph 29.9 mph N/A   Overcast
3:36 PM 55.6 °F - 43.5 °F 64% 29.77 in 10.0 mi SSW 20.7 mph 33.4 mph N/A   Overcast
3:55 PM 55.6 °F - 43.2 °F 63% 29.76 in 10.0 mi SSW 20.7 mph 31.1 mph N/A   Overcast
4:15 PM 55.6 °F - 42.8 °F 62% 29.75 in 10.0 mi SSW 21.9 mph 32.2 mph N/A   Overcast
4:35 PM 55.9 °F - 43.2 °F 62% 29.74 in 10.0 mi SW 25.3 mph 34.5 mph N/A   Overcast
4:55 PM 57.6 °F - 45.1 °F 63% 29.74 in 10.0 mi SSW 19.6 mph 27.6 mph N/A   Overcast
5:15 PM 58.1 °F - 45.9 °F 64% 29.74 in 10.0 mi SSW 20.7 mph 27.6 mph N/A   Scattered Clouds
5:35 PM 58.1 °F - 45.5 °F 63% 29.74 in 10.0 mi SSW 19.6 mph 27.6 mph N/A   Scattered Clouds
5:55 PM 58.1 °F - 45.9 °F 64% 29.74 in 10.0 mi SSW 20.7 mph 29.9 mph N/A   Mostly Cloudy
6:15 PM 58.1 °F - 45.3 °F 62% 29.74 in 10.0 mi SSW 16.1 mph 31.1 mph N/A   Overcast
6:35 PM 58.1 °F - 45.9 °F 64% 29.74 in 10.0 mi SW 24.2 mph 32.2 mph N/A   Overcast
6:55 PM 55.8 °F - 44.1 °F 65% 29.76 in 10.0 mi WNW 15.0 mph 26.5 mph N/A   Overcast
7:15 PM 50.5 °F - 42.8 °F 75% 29.78 in 10.0 mi WNW 10.4 mph 19.6 mph N/A   Light Drizzle
7:35 PM 50.5 °F - 42.4 °F 74% 29.79 in 10.0 mi West 8.1 mph 17.3 mph N/A   Overcast
7:55 PM 48.6 °F - 41.4 °F 76% 29.79 in 10.0 mi WNW 12.7 mph 20.7 mph N/A Rain Rain
8:15 PM 46.9 °F - 41.0 °F 80% 29.81 in 10.0 mi WNW 16.1 mph 27.6 mph N/A   Drizzle
8:35 PM 45.5 °F 38.6 °F 40.3 °F 82% 29.81 in 10.0 mi NW 16.1 mph 21.9 mph N/A Rain Rain
8:55 PM 45.3 °F 40.6 °F 41.4 °F 86% 29.82 in 7.0 mi NW 9.2 mph 18.4 mph 0.03 in Rain Rain
9:15 PM 43.7 °F 39.7 °F 39.9 °F 87% 29.82 in 7.0 mi NW 6.9 mph - 0.03 in Rain Rain
9:35 PM 42.8 °F 38.6 °F 39.2 °F 87% 29.82 in 7.0 mi NW 6.9 mph - 0.08 in Rain Rain
9:55 PM 41.5 °F 37.1 °F 37.6 °F 86% 29.82 in 7.0 mi WNW 6.9 mph 17.3 mph 0.11 in Rain Rain
10:15 PM 40.6 °F 36.7 °F 36.0 °F 83% 29.82 in 10.0 mi NW 5.8 mph - 0.01 in Rain Rain
10:35 PM 40.5 °F 37.3 °F 36.0 °F 84% 29.82 in 7.0 mi NW 4.6 mph - 0.04 in Rain Rain
10:55 PM 40.5 °F 34.6 °F 34.7 °F 80% 29.83 in 5.0 mi NW 9.2 mph - 0.06 in Rain Rain
11:15 PM 40.3 °F 38.2 °F 35.6 °F 83% 29.83 in 7.0 mi NW 3.5 mph - 0.02 in Rain Rain
11:35 PM 39.6 °F - 34.9 °F 83% 29.83 in 5.0 mi Calm Calm - 0.06 in Rain Rain
11:55 PM 39.2 °F - 34.5 °F 83% 29.82 in 7.0 mi Calm Calm - 0.09 in Rain Rain